DW4047 Weather Reports


time (UTC)temp
C
wind
direction
speed
KPH
gust
KPH
rain 1hr
cm
rain 24hr
cm
rain mn
cm
humidity
%
barometer
mb
20260507130633 12 311 1.6 4.8 0.00 0.30 0.05 38 983.1
20260507130131 11 335 1.6 4.8 0.00 0.30 0.05 34 983.0
20260507125631 11 324 0.0 9.7 0.00 0.33 0.05 35 983.0
20260507125132 11 0 3.2 9.7 0.00 0.33 0.05 38 982.9
20260507124132 11 0 0.0 6.4 0.00 0.36 0.05 36 982.8
20260507123630 11 0 0.0 1.6 0.00 0.38 0.05 32 982.9
20260507123134 11 0 0.0 6.4 0.00 0.41 0.05 34 982.8
20260507122630 11 334 3.2 6.4 0.00 0.41 0.05 31 982.8
20260507121633 11 352 1.6 8.0 0.00 0.43 0.05 32 982.7
20260507120631 10 341 3.2 9.7 0.00 0.46 0.05 24 982.7
20260507120129 10 337 0.0 9.7 0.00 0.46 0.05 24 982.6
20260507115629 10 327 3.2 8.0 0.00 0.48 0.05 18 982.6
20260507114629 10 339 0.0 4.8 0.00 0.48 0.05 14 982.7
20260507114128 10 338 0.0 6.4 0.00 0.48 0.05 21 982.6
20260507113631 10 333 1.6 6.4 0.00 0.48 0.05 23 982.6
20260507113132 10 323 1.6 4.8 0.00 0.48 0.05 22 982.7
20260507112633 10 323 1.6 4.8 0.00 0.48 0.05 25 982.6
20260507111632 10 322 0.0 6.4 0.00 0.48 0.05 25 982.6
20260507111129 10 309 0.0 9.7 0.00 0.48 0.05 21 982.6
20260507110629 10 25 1.6 9.7 0.00 0.48 0.05 20 982.5
20260507110129 10 32 1.6 8.0 0.00 0.48 0.05 20 982.6
20260507105629 10 335 1.6 6.4 0.00 0.48 0.05 18 982.5
20260507105129 10 334 1.6 6.4 0.00 0.48 0.05 18 982.3
20260507104628 10 343 0.0 6.4 0.00 0.48 0.05 19 982.2
20260507103631 10 333 0.0 6.4 0.00 0.48 0.05 16 982.1
20260507103132 10 334 1.6 6.4 0.00 0.48 0.05 9 982.2
20260507102632 10 326 1.6 6.4 0.00 0.48 0.05 7 982.2
20260507102130 10 339 1.6 8.0 0.00 0.48 0.05 5 982.1
20260507101630 10 339 1.6 8.0 0.00 0.48 0.05 6 982.0
20260507100628 10 346 1.6 8.0 0.00 0.48 0.05 4 981.9
20260507100124 10 331 0.0 9.7 0.00 0.48 0.05 3 981.8
20260507095114 10 346 3.2 6.4 0.00 0.48 0.05 2 981.7
20260507094614 10 336 1.6 6.4 0.00 0.48 0.05 100 981.8
20260507094103 10 332 0.0 6.4 0.00 0.48 0.05 100 981.7
20260507093604 10 336 3.2 12.9 0.00 0.48 0.05 100 981.7
20260507093101 10 5 3.2 12.9 0.00 0.48 0.05 100 981.8
20260507092601 10 321 1.6 9.7 0.00 0.48 0.05 100 981.5
20260507092101 10 345 1.6 14.5 0.00 0.48 0.05 100 981.7
20260507091602 10 332 3.2 14.5 0.00 0.48 0.05 100 981.8
20260507091059 10 338 1.6 16.1 0.00 0.48 0.05 100 981.8
20260507090558 10 349 0.0 16.1 0.00 0.48 0.05 100 981.6
20260507090058 10 336 1.6 8.0 0.00 0.48 0.05 100 981.6
20260507085553 11 348 0.0 9.7 0.00 0.48 0.05 100 981.5
20260507085054 11 0 3.2 9.7 0.00 0.48 0.05 100 981.6
20260507084546 11 309 1.6 8.0 0.00 0.48 0.05 100 981.4
20260507084050 11 334 1.6 8.0 0.00 0.48 0.05 100 981.4
20260507083548 11 346 1.6 12.9 0.00 0.48 0.05 100 981.4
20260507083046 11 352 1.6 12.9 0.00 0.48 0.05 100 981.4
20260507082546 11 328 1.6 9.7 0.00 0.48 0.05 100 981.4
20260507082041 11 5 0.0 0.0 0.00 0.48 0.05 100 981.2
20260507081542 11 5 0.0 0.0 0.00 0.48 0.05 100 981.1
20260507081032 11 5 0.0 0.0 0.00 0.48 0.05 100 981.0
20260507080032 11 5 0.0 1.6 0.03 0.48 0.05 100 981.0
20260507075529 11 5 0.0 1.6 0.03 0.46 0.05 100 980.9
20260507075029 11 12 0.0 6.4 0.03 0.46 0.05 100 981.1
20260507074531 11 345 4.8 6.4 0.03 0.46 0.05 100 981.1
20260507074030 11 331 0.0 0.0 0.03 0.46 0.05 100 981.1
20260507073531 11 331 0.0 4.8 0.03 0.46 0.05 100 980.9
20260507072532 11 349 0.0 4.8 0.03 0.46 0.05 100 981.0
20260507072031 11 344 0.0 4.8 0.05 0.46 0.05 100 981.1
20260507071031 11 20 0.0 6.4 0.05 0.46 0.05 100 981.3
20260507070529 11 340 0.0 3.2 0.05 0.46 0.05 100 981.4
20260507070029 12 304 0.0 1.6 0.03 0.46 0.03 100 981.5
20260507065529 12 304 0.0 1.6 0.03 0.43 0.03 100 981.5
20260507064531 12 296 0.0 3.2 0.03 0.43 0.03 100 981.3
20260507064030 12 290 0.0 3.2 0.03 0.43 0.03 100 981.3
20260507062531 12 19 0.0 1.6 0.03 0.43 0.03 100 981.5
20260507062032 12 19 0.0 0.0 0.00 0.43 0.00 100 981.7
20260507061529 12 19 0.0 0.0 0.00 0.43 0.00 100 981.6
20260507060529 12 19 0.0 9.7 0.00 0.43 0.00 100 981.5
20260507060028 12 333 0.0 3.2 0.00 0.43 0.00 100 981.5
20260507055531 12 332 0.0 6.4 0.00 0.43 0.00 100 981.4
20260507055029 12 325 0.0 6.4 0.00 0.43 0.00 100 981.5
20260507054530 12 342 0.0 4.8 0.00 0.43 0.00 100 981.3
20260507054031 12 335 0.0 4.8 0.00 0.43 0.00 100 981.4
20260507053530 12 334 0.0 8.0 0.00 0.43 0.00 100 981.3
20260507053029 12 344 0.0 8.0 0.00 0.43 0.00 100 981.5
20260507052530 12 352 0.0 3.2 0.00 0.43 0.00 100 981.3
20260507052031 12 324 0.0 8.0 0.00 0.43 0.00 100 981.4
20260507051532 12 292 1.6 8.0 0.00 0.43 0.00 100 981.2
20260507050030 13 332 1.6 8.0 0.00 0.43 0.00 100 981.7
20260507045519 13 352 3.2 8.0 0.00 0.43 0.00 100 981.6
20260507045020 13 327 1.6 4.8 0.00 0.43 0.00 100 981.4
20260507044515 13 18 0.0 6.4 0.00 0.43 0.00 100 981.6
20260507043508 13 324 1.6 9.7 0.00 0.43 0.00 100 981.7
20260507043004 13 338 1.6 9.7 0.00 0.43 0.00 100 981.5
20260507042004 13 315 1.6 9.7 0.00 0.43 0.00 100 981.1
20260507041502 13 9 3.2 9.7 0.00 0.43 0.00 100 981.2
20260507041002 13 350 0.0 3.2 0.00 0.43 0.00 100 980.9
20260507040509 13 329 0.0 9.7 0.00 0.43 0.00 100 981.2
20260507040009 13 352 0.0 9.7 0.00 0.43 0.00 100 981.3
20260507035503 13 49 1.6 6.4 0.00 0.43 0.43 100 981.0
20260507034504 13 336 0.0 4.8 0.00 0.43 0.43 100 981.0
20260507034001 13 330 1.6 19.3 0.00 0.43 0.43 100 981.1
20260507033504 14 10 1.6 19.3 0.00 0.43 0.43 100 980.8
20260507033001 14 314 3.2 9.7 0.00 0.43 0.43 100 980.8
20260507032502 14 352 3.2 9.7 0.00 0.43 0.43 100 980.7
20260507031503 15 0 0.0 3.2 0.00 0.43 0.43 100 980.7
20260507030959 15 336 0.0 4.8 0.00 0.43 0.43 100 980.8
20260507030451 15 333 1.6 6.4 0.00 0.43 0.43 100 981.2
20260507025954 15 18 0.0 6.4 0.00 0.43 0.43 100 980.7
20260507025449 15 346 3.2 6.4 0.00 0.43 0.43 100 980.8
20260507024950 15 316 1.6 6.4 0.00 0.43 0.43 100 980.4
20260507024440 15 328 0.0 6.4 0.00 0.43 0.43 100 980.4
20260507023941 15 325 0.0 6.4 0.00 0.43 0.43 100 980.6
20260507023435 15 329 1.6 4.8 0.00 0.43 0.43 100 980.5
20260507022934 15 333 0.0 1.6 0.00 0.43 0.43 100 980.6
20260507022429 15 334 0.0 1.6 0.00 0.43 0.43 100 980.6
20260507021931 15 327 0.0 1.6 0.00 0.43 0.43 100 980.5
20260507021433 15 327 0.0 1.6 0.00 0.43 0.43 100 980.4
20260507020929 15 327 0.0 1.6 0.00 0.43 0.43 100 980.5
20260507015929 15 323 0.0 4.8 0.00 0.43 0.43 100 980.5
20260507015430 15 322 0.0 4.8 0.00 0.43 0.43 100 980.6
20260507014930 15 302 0.0 3.2 0.00 0.43 0.43 100 980.4
20260507014429 15 0 0.0 4.8 0.00 0.43 0.43 100 980.4
20260507013930 16 332 0.0 4.8 0.00 0.43 0.43 100 980.4
20260507013429 16 340 1.6 4.8 0.00 0.43 0.43 100 980.6
20260507012931 16 326 0.0 4.8 0.00 0.43 0.43 100 980.6
20260507012429 16 9 0.0 4.8 0.00 0.43 0.43 100 980.4
20260507011934 16 311 0.0 6.4 0.03 0.43 0.43 100 980.9
20260507011429 16 337 0.0 6.4 0.03 0.43 0.43 100 980.8
20260507010929 16 347 0.0 8.0 0.03 0.43 0.43 100 980.7
20260507010429 17 336 0.0 8.0 0.03 0.43 0.43 100 980.6
20260507005432 17 318 1.6 12.9 0.03 0.41 0.43 100 980.7
20260507004430 18 299 3.2 9.7 0.03 0.41 0.43 100 980.6
20260507003930 18 335 1.6 8.0 0.03 0.41 0.43 100 980.4
20260507003429 18 336 0.0 3.2 0.05 0.41 0.43 100 980.6
20260507002926 18 346 0.0 1.6 0.05 0.41 0.43 100 980.1
20260507001923 18 346 0.0 0.0 0.03 0.41 0.41 100 980.1
20260507000906 18 346 0.0 0.0 0.03 0.41 0.41 100 980.1
20260507000401 19 346 0.0 0.0 0.03 0.41 0.41 100 979.7
20260506235903 19 346 0.0 0.0 0.03 0.38 0.41 100 979.8
20260506235401 19 346 0.0 0.0 0.03 0.38 0.41 100 979.6
20260506234904 19 346 0.0 0.0 0.03 0.38 0.41 100 979.5
20260506234400 19 346 0.0 4.8 0.03 0.38 0.41 100 979.3
20260506233902 20 346 0.0 4.8 0.00 0.38 0.38 100 979.1
20260506233402 20 227 0.0 0.0 0.00 0.38 0.38 100 979.2
20260506232902 20 227 0.0 0.0 0.00 0.38 0.38 100 979.0
20260506232403 20 227 0.0 0.0 0.00 0.38 0.38 100 979.0
20260506231904 20 227 0.0 3.2 0.00 0.38 0.38 100 979.0
20260506231403 20 227 0.0 3.2 0.00 0.38 0.38 100 978.9
20260506230900 20 227 0.0 0.0 0.00 0.38 0.38 100 978.8
20260506230400 20 227 0.0 1.6 0.00 0.38 0.38 100 978.9
20260506225901 20 227 0.0 4.8 0.00 0.38 0.38 100 978.8
20260506225401 20 227 1.6 4.8 0.00 0.38 0.38 100 978.8
20260506224901 20 273 0.0 4.8 0.00 0.38 0.38 100 978.9
20260506224358 20 309 0.0 4.8 0.00 0.38 0.38 100 979.0
20260506223901 20 315 0.0 4.8 0.00 0.38 0.38 100 978.9
20260506223357 20 265 0.0 4.8 0.00 0.38 0.38 100 978.7
20260506222847 20 188 1.6 4.8 0.00 0.38 0.38 100 978.8
20260506222343 20 188 1.6 8.0 0.00 0.38 0.38 100 979.0
20260506221838 20 184 0.0 8.0 0.00 0.38 0.38 100 978.9
20260506221333 20 184 1.6 4.8 0.00 0.38 0.38 100 978.8
20260506220330 20 184 3.2 6.4 0.00 0.38 0.38 100 978.9
20260506215831 19 171 0.0 1.6 0.00 0.38 0.38 100 979.0
20260506214830 19 171 0.0 3.2 0.00 0.38 0.38 100 979.0
20260506214321 19 171 0.0 3.2 0.00 0.38 0.38 100 978.7
20260506213812 19 151 0.0 3.2 0.00 0.38 0.38 100 978.8
20260506213305 19 151 0.0 3.2 0.00 0.38 0.38 100 978.7
20260506212805 19 148 0.0 3.2 0.00 0.38 0.38 100 978.6
20260506212306 19 223 1.6 3.2 0.00 0.38 0.38 100 978.5
20260506211804 19 217 0.0 0.0 0.00 0.38 0.38 100 978.5
20260506211305 19 217 0.0 3.2 0.00 0.38 0.38 100 978.5
20260506210801 19 217 0.0 4.8 0.00 0.38 0.38 100 978.4
20260506205804 20 209 0.0 3.2 0.00 0.38 0.38 100 978.3
20260506205305 20 250 0.0 3.2 0.00 0.38 0.38 100 978.3
20260506204803 20 221 0.0 4.8 0.00 0.38 0.38 100 978.2
20260506204303 20 221 0.0 4.8 0.00 0.38 0.38 100 978.2
20260506203759 20 221 0.0 4.8 0.00 0.38 0.38 100 978.2
20260506203301 20 224 0.0 4.8 0.00 0.38 0.38 100 978.1
20260506202757 20 219 1.6 6.4 0.00 0.38 0.38 100 978.4
20260506202257 20 188 1.6 6.4 0.00 0.38 0.38 100 978.4
20260506201750 20 193 1.6 4.8 0.00 0.38 0.38 100 978.3
20260506200746 20 188 0.0 6.4 0.00 0.38 0.38 100 978.3
20260506200243 20 188 0.0 4.8 0.00 0.38 0.38 100 978.4
20260506195737 20 188 0.0 4.8 0.00 0.38 0.38 100 978.4
20260506195239 20 9 0.0 6.4 0.00 0.38 0.38 100 978.3
20260506194739 20 9 0.0 8.0 0.00 0.38 0.38 100 978.4
20260506194235 20 214 0.0 8.0 0.00 0.38 0.38 100 978.5
20260506193730 20 175 0.0 6.4 0.00 0.38 0.38 100 978.4
20260506193228 20 224 1.6 6.4 0.00 0.38 0.38 100 978.4
20260506192731 20 237 0.0 8.0 0.00 0.38 0.38 100 978.3
20260506192229 19 230 1.6 9.7 0.00 0.38 0.38 100 978.3
20260506191729 20 246 3.2 9.7 0.00 0.38 0.38 100 978.2
20260506191228 20 217 1.6 9.7 0.00 0.38 0.38 100 978.4
20260506190725 19 220 1.6 9.7 0.00 0.38 0.38 100 978.3
20260506190226 19 136 0.0 9.7 0.00 0.38 0.38 100 978.4
20260506185728 19 225 4.8 9.7 0.00 0.38 0.38 100 978.5
20260506185222 19 236 1.6 9.7 0.00 0.38 0.38 100 978.5
20260506184233 19 188 3.2 12.9 0.00 0.38 0.38 100 978.6
20260506183719 19 184 3.2 12.9 0.00 0.38 0.38 100 978.6
20260506183221 19 235 3.2 9.7 0.00 0.38 0.38 100 978.7
20260506182716 19 122 4.8 9.7 0.00 0.38 0.38 100 978.6
20260506182217 18 207 0.0 6.4 0.00 0.38 0.38 100 978.7
20260506181712 18 165 1.6 11.3 0.00 0.38 0.38 100 978.7
20260506180712 18 291 3.2 19.3 0.00 0.38 0.38 100 978.7
20260506180205 18 235 3.2 19.3 0.00 0.38 0.38 100 978.8
20260506175208 18 243 4.8 12.9 0.00 0.38 0.38 100 978.9
20260506174205 17 219 1.6 14.5 0.00 0.38 0.38 100 978.9
20260506173703 17 125 6.4 14.5 0.00 0.38 0.38 100 978.9
20260506172702 17 223 3.2 14.5 0.00 0.38 0.38 100 978.9
20260506172202 17 186 3.2 14.5 0.00 0.38 0.38 100 978.8
20260506171702 17 157 6.4 11.3 0.00 0.38 0.38 100 978.9
20260506171203 17 202 1.6 11.3 0.00 0.38 0.38 100 978.9
20260506170703 16 145 3.2 12.9 0.00 0.38 0.38 100 979.0
20260506170204 16 266 4.8 12.9 0.00 0.38 0.38 100 978.9
20260506165702 16 194 4.8 17.7 0.00 0.38 0.38 100 979.0
20260506165205 16 172 6.4 17.7 0.00 0.38 0.38 100 978.9
20260506164704 16 260 4.8 12.9 0.00 0.38 0.38 100 978.8
20260506164205 16 248 3.2 12.9 0.00 0.38 0.38 100 978.9
20260506163702 16 200 6.4 14.5 0.00 0.38 0.38 100 978.9
20260506162702 16 255 6.4 19.3 0.00 0.38 0.38 100 979.1
20260506162202 16 159 4.8 12.9 0.00 0.38 0.38 100 979.0
20260506161702 16 181 1.6 12.9 0.00 0.38 0.38 100 978.9
20260506161203 16 213 6.4 16.1 0.00 0.38 0.38 100 979.0
20260506160703 16 121 3.2 16.1 0.00 0.38 0.38 100 979.1
20260506160203 16 170 3.2 17.7 0.00 0.38 0.38 100 979.1
20260506154704 15 163 4.8 16.1 0.03 0.38 0.38 100 979.2
20260506154203 16 140 3.2 17.7 0.05 0.38 0.38 100 979.1
20260506153704 15 118 8.0 17.7 0.05 0.38 0.38 100 979.0
20260506153201 15 221 8.0 14.5 0.05 0.38 0.38 100 978.9
20260506152701 15 227 6.4 17.7 0.08 0.38 0.38 100 978.9
20260506151701 15 244 6.4 19.3 0.10 0.38 0.38 100 979.2
20260506151201 15 152 8.0 17.7 0.10 0.38 0.38 100 979.3
20260506150201 15 273 6.4 16.1 0.10 0.38 0.38 100 979.2
20260506145703 15 168 4.8 19.3 0.10 0.28 0.38 100 979.4
20260506145159 15 166 6.4 20.9 0.10 0.28 0.36 100 979.7
20260506144659 15 140 4.8 20.9 0.10 0.28 0.33 100 979.8
20260506144202 15 171 3.2 11.3 0.10 0.28 0.33 100 979.7
20260506143658 15 188 1.6 11.3 0.10 0.28 0.33 100 979.9
20260506143155 15 227 6.4 16.1 0.08 0.28 0.30 100 979.8
20260506142653 15 218 6.4 16.1 0.10 0.28 0.30 100 979.6
20260506142151 15 132 3.2 12.9 0.08 0.28 0.28 100 979.4
20260506141651 15 27 4.8 16.1 0.10 0.28 0.28 100 979.3
20260506141149 15 178 3.2 16.1 0.10 0.28 0.28 100 979.3
20260506140143 15 146 1.6 17.7 0.10 0.28 0.28 100 979.6
20260506135643 15 206 6.4 17.7 0.13 0.15 0.28 100 979.6
20260506135146 15 171 4.8 14.5 0.10 0.15 0.25 100 979.5
20260506134644 15 187 4.8 19.3 0.13 0.15 0.25 100 979.4
20260506134145 15 187 6.4 19.3 0.10 0.15 0.23 100 979.3
20260506133643 16 207 4.8 14.5 0.13 0.15 0.23 100 979.7
20260506133138 15 198 3.2 12.9 0.15 0.15 0.23 100 979.9
20260506132639 15 143 3.2 11.3 0.13 0.15 0.20 100 980.0
20260506132139 15 175 3.2 11.3 0.15 0.15 0.20 100 980.0
20260506131636 16 146 4.8 9.7 0.13 0.15 0.18 100 980.0
20260506131135 16 213 1.6 11.3 0.15 0.15 0.18 100 979.9